{"data":{"norad_id":66175,"epoch":"2026-05-25T05:23:51.417888Z","epoch_age_seconds":55851,"freshness":"FRESH","line1":"1 66175U 25242A   26145.22490067  .00005831  00000+0  23358-3 0  9998","line2":"2 66175  97.4125 221.0005 0002393  99.1787 260.9722 15.25426697 32193","mean_motion":15.25426697,"eccentricity":0.0002393,"inclination_deg":97.4125,"raan_deg":221.0005,"arg_perigee_deg":99.1787,"mean_anomaly_deg":260.9722,"bstar":0.00023358,"rev_number":3219,"period_min":94.399816315789,"perigee_km":487.86101683898,"apogee_km":491.14787003381,"semimajor_km":6867.6414434364,"source":"CELESTRAK","updated_at":"2026-05-25T13:38:06.031936Z"}}